TIANMU-1 07

Last updated on Thu Oct 30 2025 00:02:23 GMT+0000 (Coordinated Universal Time)

1 57399U 23101A 25302.51100841 .00009283 00000+0 35138-3 0 9996 2 57399 97.2942 353.3498 0002985 212.6184 147.4871 15.27142545126402
UTC large
Height (km)
Speed (km/s)
/
Latitude / Longitude
Inclination (degrees)
Orbital Period (minutes)
Azimuth
Elevation
Range (km)
Doppler Factor

Next 0 passes for location: London (51.5072 / 0.1276)

Sorry there are no passes over London.